CZ-6A DEB, 60707

Orbit data source: Space-Track

CZ-6A DEB, 60707 is space debris in LEO originally from a launch on Tue, 06 Aug 2024 UTC launched from the Taiyaun Space Center, China (TSC). Debris objects in space refer to the collection of defunct objects orbiting the Earth. Examples of debris include non-operational satellites, rocket bodies, and fragments generated from explosions, collisions, or faulty payload assembly.

Loading next visibility...
Identifier
60707, 2024-140DL
Orbit
LEO
Country
Flag of CNCN / PRC
Related business
Manufacturer
SAST
Mission
Spacecraft
Bus & Motor
Unknown
Mass
Unknown
Launch date (UTC)
2024-08-06 (2 years ago)
Launch vehicle
Unknown
Launch site
Taiyaun Space Center, China (TSC)
Object type
Payload
Rocket body
Debris
Shape & HBR
Unknown shape, 0.2 m
Radar Cross Section
Medium (>0.1 m² and <1 m²)

Expand to show TLE details & history
Last TLE update: 15 hours ago

TLE from 15 hours ago
0 CZ-6A DEB
1 60707U 24140DL  26171.23804102  .00000424  00000-0  13839-3 0  9995
2 60707  88.9685 269.5438 0036619 339.5154  20.4575 14.36492582 97146
Epoch: 2026-06-20T05:42Z
TLE epoch observation values (Epoch: 2026-06-20T05:42:46.744Z)
Latitude
0.00007°
Longitude
-84.6065°
Altitude
748.668 km
Speed
7.493 km/s
True Right ascension
17h 58m 10s
True Declination
0° 00' 00"
Sunlit
Object was in full shadow at epoch
Visualization orbit readout
Latitude
Unknown
Longitude
Unknown
Altitude
Unknown
Speed
Unknown
Apparent Right ascension
Unknown
Apparent Declination
Unknown
Sunlit
N/A
Visualization observer readout
Local Sidereal Time
07:15:13
Azimuth
Unknown
Elevation
Unknown
Doppler factor
Unknown
Orbital elements
Apogee altitude
793.203 km
Perigee altitude
740.873 km
Semi-major axis
7,145.175 km
Eccentricity
0.00366
Inclination
88.9685°
RAAN
269.5438°
Arg. of periapsis
339.5154°
True anomaly
20.60479°
Mean anomaly
20.4575°
Eccentric anomaly
20.53108°
Mean motion
3.59355 °/min
Orbital period
100.18 mins
BSTAR
0.00013839
Loading maneuver chart data...
Computing Atmospheric mass density...
Loading historical data...
Loading historical data...
Loading historical data...
Loading historical data...
Loading historical data...
Loading historical data...
Loading historical data...

Documentation

Showing up to 5 results
|